Location: Excel
(51.3833°N, 110.5667°W)
Time: 08:13:48
(UTC+00:00)

ISS - Visible Passes

Search period start: 04 December 2021 00:00
Search period end: 14 December 2021 00:00
Orbit: 417 x 423 km, 51.6° (Epoch: 04 December)

Date Brightness Start Highest point End Pass type
(mag) Time Alt. Az. Time Alt. Az. Time Alt. Az.
04 Dec -2.6 01:31:07 10° W 01:34:20 39° SSW 01:35:03 34° S visible
05 Dec -3.0 00:43:40 10° W 00:47:00 53° SSW 00:49:58 12° SE visible
05 Dec -0.8 02:21:19 10° WSW 02:22:58 14° SW 02:22:58 14° SW visible
05 Dec -3.4 23:56:14 10° W 23:59:36 68° SSW 00:02:59 10° ESE visible
06 Dec -1.3 01:33:25 10° W 01:36:02 21° SW 01:38:03 13° S visible
07 Dec -1.7 00:45:43 10° W 00:48:42 29° SSW 00:51:40 10° SSE visible
07 Dec -2.2 23:58:06 10° W 00:01:18 39° SSW 00:04:29 10° SE visible
09 Dec -0.6 00:48:08 10° WSW 00:50:04 14° SW 00:51:59 10° S visible
10 Dec -0.8 00:00:05 10° W 00:02:41 21° SW 00:05:16 10° SSE visible
